Lexington Weather

Lexington, Massachusetts, USA

41°F
11/27/2020 3:22am 
  • Lexington Conditions: Fog, Overcast
  • Temperature: 40.6°F / 4.8°CWarmer 0.9°F than last hour.
  • Dew Point: 39.9°FIncreased 0.9°Fsince last hour.
  • Relative Humidity: 97
  • Wind: Calm, 10-min avg: Calm, gust: None
  • Barometer: 29.97 in Steady
  • Visibility: ¼ mile
  • Rain Today: 0.00 in
  •   
Southeast Middlesex County - Special Weather Statement
 - SEE ALL NEARBY ALERTS -

Regional Weather Roundup
for Boston / Norton, MA

        
000
ASUS41 KBOX 222004
RWRBOX

REGIONAL WEATHER ROUNDUP
NATIONAL WEATHER SERVICE BOSTON/NORTON MA
300 PM EST SUN NOV 22 2020

NOTE:  "FAIR" INDICATES FEW OR NO CLOUDS BELOW 12,000 FEET WITH NO 
SIGNIFICANT WEATHER AND/OR OBSTRUCTIONS TO VISIBILITY.

MAZALL-222100-
EASTERN MASSACHUSETTS
  
CITY           SKY/WX    TMP DP  RH WIND       PRES   REMARKS
BOSTON         CLOUDY    43  34  70 E13       30.49F                  
BEVERLY        CLOUDY    43  32  65 NE3       30.49F                  
LAWRENCE       CLOUDY    42  30  62 E7        30.51F                  
BEDFORD        CLOUDY    42  29  59 NE10      30.47F                  
BLUE HILL        N/A     41  34  76 E10       30.45F                  
NORWOOD        CLOUDY    45  35  68 E8        30.48F                  
MARSHFIELD     CLOUDY    46  37  71 E14       30.48S                  
PLYMOUTH       CLOUDY    45  36  70 E12       30.46F                  
TAUNTON        CLOUDY    47  37  68 E8        30.46F                  
NEW BEDFORD    CLOUDY    48  39  71 NE12      30.45F                  
$$

MAZALL-222100-
CAPE COD AND THE ISLANDS
  
CITY           SKY/WX    TMP DP  RH WIND       PRES   REMARKS
FALMOUTH       CLOUDY    48  37  66 NE14      30.47S                  
HYANNIS        CLOUDY    48  39  71 E7        30.44F                  
CHATHAM        CLOUDY    48  38  68 E13G18    30.47F                  
PROVINCETOWN   CLOUDY    45  36  70 E14       30.49F                  
NANTUCKET      CLOUDY    52  43  71 E18       30.43F                  
MARTHAS VNYRD  CLOUDY    49  42  77 E16G22    30.44F                  
$$
 
MAZALL-222100-
CENTRAL AND WESTERN MASSACHUSETTS
  
CITY           SKY/WX    TMP DP  RH WIND       PRES   REMARKS
WORCESTER      LGT RAIN  38  30  73 E12G17    30.43F WCI  30          
FITCHBURG      CLOUDY    39  28  64 E5        30.48F                  
ORANGE         CLOUDY    38  28  67 E7        30.44F                  
SPRINGFIELD    CLOUDY    42  31  64 E5        30.41F                  
WESTFIELD      CLOUDY    43  32  65 NE7       30.42F                  
NORTH ADAMS    CLOUDY    39  29  67 E14G22    30.39F WCI  31          
PITTSFIELD     CLOUDY    38  30  73 E5        30.35F                  
$$
 
RIZALL-222100-
RHODE ISLAND
  
CITY           SKY/WX    TMP DP  RH WIND       PRES   REMARKS
PROVIDENCE     CLOUDY    47  37  68 NE12      30.45F                  
NEWPORT        CLOUDY    47  38  71 E10       30.43F                  
BLOCK ISLAND   CLOUDY    49  43  80 E16G25    30.41F                  
SMITHFIELD     CLOUDY    43  38  82 E8        30.44F                  
WESTERLY       CLOUDY    49  39  68 NE12G21   30.41F                  
$$
 
CTZALL-222100-
CONNECTICUT
  
CITY           SKY/WX    TMP DP  RH WIND       PRES   REMARKS
BRADLEY INTL   CLOUDY    45  31  58 NE6       30.41F                  
HARTFORD       CLOUDY    47  34  60 NE5       30.40F                  
BRIDGEPORT     CLOUDY    48  36  63 NE9       30.36F                  
DANBURY        CLOUDY    43  31  62 NE10      30.37F                  
GROTON         CLOUDY    49  39  68 E12       30.40F                  
NEW HAVEN      CLOUDY    50  40  68 NE9       30.37F                  
CHESTER        CLOUDY    46  37  71 E8        30.38F                  
MERIDEN        CLOUDY    44  31  60 CALM      30.39                   
WILLIMANTIC    CLOUDY    45  33  63 NE12      30.42F                  
OXFORD         CLOUDY    41  31  67 E9        30.37F                  
$$

MEZ002-015-021-024-NHZ003-005-008-011-012-014-VTZ005-008-222100-
NORTHERN NEW ENGLAND
  
CITY           SKY/WX    TMP DP  RH WIND       PRES   REMARKS
PORTLAND ME    CLOUDY    38  30  73 E12       30.54F WCI  30          
BANGOR ME      MOCLDY    36  15  42 SW3       30.56F                  
CONCORD NH     LGT SNOW  35  27  72 E7        30.49F WCI  29          
MANCHESTER NH  CLOUDY    40  27  59 E7        30.48F                  
NASHUA NH      CLOUDY    40  29  64 E7        30.49F                  
PORTSMOUTH NH  CLOUDY    40  25  53 NE8       30.49F                  
JAFFREY NH     CLOUDY    36  25  64 VRB3      30.44F                  
KEENE NH       LGT RAIN  38  29  70 SE7       30.44F                  
BURLINGTON VT  CLOUDY    39  21  48 CALM      30.38                   
MT. WASHINGTON FLURRIES  19   5  53 SW28G36     N/A  WCI   1          
$$

NYZ052-076-222100-
EASTERN NEW YORK
  
CITY           SKY/WX    TMP DP  RH WIND       PRES   REMARKS
ALBANY         DRIZZLE   35  29  78 NE5       30.37F WCI  31          
NEW YORK CITY  CLOUDY    51  42  71 E14       30.33F                  
$$
 
ANZALL-222100-
MARINE OBSERVATIONS
  
STATION/POSITION TIME  TEMP    WIND        PRES    VSBY  WAVE
                       AIR SEA DIR/SP/G                  HT/PER
                 (UTC) (F)     (DEG/KT/KT) (MB)    (MI)  (FT/S)
BOSTON BUOY      1940   45 51   80/ 12/ 16 1032.8F
BUZZARDS BAY     1900           70/ 18/ 19 1031.8F
NANTUCKET SOUND  1940      52   70/ 16/ 19   N/A
MASS BAY-STELLWA NOT AVBL
ISLE OF SHOALS   1900   41      70/ 11/ 12 1033.2F
S OF BLOCK IS    1926      58                N/A           5/ 6
$$

......................KEY.........................
  SKY/WX - SKY CONDITION/PRESENT WEATHER
  TMP    - TEMPERATURE IN FAHRENHEIT
  DWPT   - DEWPOINT IN FAHRENHEIT
  RH     - RELATIVE HUMIDITY IN PERCENT
  WIND   - DIRECTION AND SPEED IN MPH
  PRES   - MEAN SEA LEVEL PRESSURE IN INCHES OF HG
  WCI    - WIND CHILL INDEX
  VSB    - VISIBILITY IN MILES
  HX     - HEAT INDEX
  TC     - TEMPERATURE IN CELSIUS
  VRB    - VARIABLE WIND DIRECTION
  N/A    - NOT AVAILABLE
  
      

Other recent Regional Weather Roundups

Fri Nov 27, 12:04am

Thu Nov 26, 11:04pm

Thu Nov 26, 10:04pm

Thu Nov 26, 9:04pm

Thu Nov 26, 8:04pm

Thu Nov 26, 7:04pm

Thu Nov 26, 6:04pm

Thu Nov 26, 5:04pm

Thu Nov 26, 4:04pm

Thu Nov 26, 2:04pm

Thu Nov 26, 1:04pm

Thu Nov 26, 12:04pm

Thu Nov 26, 11:04am

Thu Nov 26, 10:04am

Thu Nov 26, 9:04am

Thu Nov 26, 8:04am

Thu Nov 26, 7:04am

Thu Nov 26, 6:04am

Thu Nov 26, 5:04am

Thu Nov 26, 4:04am

Thu Nov 26, 3:04am

Thu Nov 26, 2:04am

Thu Nov 26, 1:04am

Thu Nov 26, 12:04am

Wed Nov 25, 11:04pm

Wed Nov 25, 10:04pm

Wed Nov 25, 9:04pm

Wed Nov 25, 8:04pm

Wed Nov 25, 7:04pm

Wed Nov 25, 6:04pm

Wed Nov 25, 5:04pm

Wed Nov 25, 4:04pm

Wed Nov 25, 3:05pm

Wed Nov 25, 2:04pm

Wed Nov 25, 1:04pm

Wed Nov 25, 12:05pm

Wed Nov 25, 11:04am

Wed Nov 25, 10:04am

Wed Nov 25, 9:04am

Wed Nov 25, 8:04am

Wed Nov 25, 7:04am

Wed Nov 25, 6:04am

Wed Nov 25, 5:04am

Wed Nov 25, 4:04am

Wed Nov 25, 3:04am

Wed Nov 25, 2:04am

Wed Nov 25, 1:04am

Wed Nov 25, 12:04am

Tue Nov 24, 11:04pm

Tue Nov 24, 10:04pm

Tue Nov 24, 9:04pm

Tue Nov 24, 8:04pm

Tue Nov 24, 7:04pm

Tue Nov 24, 6:04pm

Tue Nov 24, 5:04pm

Tue Nov 24, 4:05pm

Tue Nov 24, 3:05pm

Tue Nov 24, 2:05pm

Tue Nov 24, 1:05pm

Tue Nov 24, 12:04pm

Tue Nov 24, 11:04am

Tue Nov 24, 10:04am

Tue Nov 24, 9:04am

Tue Nov 24, 8:04am

Tue Nov 24, 7:04am

Tue Nov 24, 6:04am

Tue Nov 24, 5:04am

Tue Nov 24, 4:05am

Tue Nov 24, 3:04am

Tue Nov 24, 2:04am

Tue Nov 24, 1:04am

Tue Nov 24, 12:05am

Mon Nov 23, 11:04pm

Mon Nov 23, 10:04pm

Mon Nov 23, 9:04pm

Mon Nov 23, 8:04pm

Mon Nov 23, 7:04pm

Mon Nov 23, 6:04pm

Mon Nov 23, 5:04pm

Mon Nov 23, 4:04pm

Mon Nov 23, 3:04pm

Mon Nov 23, 2:04pm

Mon Nov 23, 1:04pm

Mon Nov 23, 12:04pm

Mon Nov 23, 11:04am

Mon Nov 23, 10:04am

Mon Nov 23, 9:04am

Mon Nov 23, 8:05am

Mon Nov 23, 7:04am

Mon Nov 23, 6:04am

Mon Nov 23, 5:04am

Mon Nov 23, 4:04am

Mon Nov 23, 3:04am

Mon Nov 23, 2:04am

Mon Nov 23, 1:04am

Mon Nov 23, 12:05am

Sun Nov 22, 11:04pm

Sun Nov 22, 10:04pm

Sun Nov 22, 9:04pm

Sun Nov 22, 8:05pm

Sun Nov 22, 7:04pm

Sun Nov 22, 6:04pm

Sun Nov 22, 5:04pm

Sun Nov 22, 4:04pm

Sun Nov 22, 2:04pm

Sun Nov 22, 1:05pm

Sun Nov 22, 12:04pm

Sun Nov 22, 11:04am

Sun Nov 22, 10:05am

Sun Nov 22, 9:04am

Sun Nov 22, 8:04am

Sun Nov 22, 7:04am

Sun Nov 22, 6:04am

Sun Nov 22, 5:04am

Sun Nov 22, 4:04am

Sun Nov 22, 3:04am

Sun Nov 22, 2:04am

Sun Nov 22, 1:04am

Sun Nov 22, 12:04am

Sat Nov 21, 11:04pm

Sat Nov 21, 10:04pm

Sat Nov 21, 9:04pm

Sat Nov 21, 8:05pm

Sat Nov 21, 7:04pm

Sat Nov 21, 6:04pm

Sat Nov 21, 5:04pm

Sat Nov 21, 4:05pm

Sat Nov 21, 3:04pm

Sat Nov 21, 2:04pm

Sat Nov 21, 1:05pm

Sat Nov 21, 12:04pm

Sat Nov 21, 11:04am

Sat Nov 21, 10:04am

Sat Nov 21, 9:04am

Sat Nov 21, 8:04am

Sat Nov 21, 7:04am

Sat Nov 21, 6:04am

Sat Nov 21, 5:04am

Sat Nov 21, 4:04am

Sat Nov 21, 3:04am

Sat Nov 21, 2:04am

Sat Nov 21, 1:04am

Sat Nov 21, 12:04am

Fri Nov 20, 11:04pm

Fri Nov 20, 10:04pm

Fri Nov 20, 9:04pm

Fri Nov 20, 8:04pm

Fri Nov 20, 7:04pm

Fri Nov 20, 6:04pm

Fri Nov 20, 5:04pm

Fri Nov 20, 4:05pm

Fri Nov 20, 3:05pm

Fri Nov 20, 2:04pm

Fri Nov 20, 1:04pm

Fri Nov 20, 12:04pm

Fri Nov 20, 11:04am

Fri Nov 20, 10:04am

Fri Nov 20, 9:04am

Fri Nov 20, 8:04am

Fri Nov 20, 7:04am

Fri Nov 20, 6:04am

Fri Nov 20, 5:04am

Fri Nov 20, 4:04am

Meta data:

ID: 4cee3963-ce59-4ea6-8247-48453b8ad7b2
Link: https://api.weather.gov/products/4cee3963-ce59-4ea6-8247-48453b8ad7b2